RH
32 35 40 42 47 60 35 36 33 38 52 70 79 64 52 44 40 38 36 36 40 35 35 42 45 49 53 54 55 45 38 34 30 31 36 24 6 6 9 10 11 13 26 34 66 100 100
32 28 35 38 48 69 49 36 46 49 56 72 93 91 64 64 40 45 37 44 44 39 41 40 42 46 54 63 59 59 54 46 37 32 27 35 31 7 6 10 12 11 15 19 34 98 100
53 59 56 50 53 63 74 67 46 60 69 85 99 98 77 64 42 36 31 33 43 40 43 40 41 49 59 54 60 80 85 74 55 43 34 25 34 36 9 7 11 12 13 16 23 45 100
56 67 73 66 58 79 83 92 88 82 73 88 100 99 78 51 48 37 35 29 40 42 51 53 42 41 53 64 60 59 77 78 83 66 56 43 32 34 33 11 7 12 12 14 22 34 79
60 79 82 77 75 78 99 94 93 93 89 100 80 71 67 58 61 40 43 49 42 39 48 59 51 46 53 66 65 63 72 86 88 92 75 68 50 39 37 41 20 8 10 17 18 19 23
69 51 53 70 85 98 82 58 59 56 77 88 70 70 71 60 55 56 52 63 54 47 51 58 59 56 68 79 88 89 89 92 86 84 87 73 70 64 48 36 45 38 8 10 16 20 21
80 68 54 47 67 70 57 58 65 55 60 69 70 79 81 65 51 61 79 74 60 57 52 60 58 57 72 92 88 92 86 99 90 85 76 69 54 69 64 60 57 44 40 10 10 13 20
74 90 52 44 40 44 60 64 71 53 59 68 80 92 80 79 75 70 77 75 38 40 49 62 72 80 88 98 95 88 94 99 97 86 86 83 52 67 80 82 71 60 45 36 13 8 12
39 50 57 46 43 43 46 54 58 56 62 76 88 86 88 83 89 84 68 50 38 37 46 77 77 92 96 96 98 95 99 100 100 99 100 100 75 61 71 81 74 87 54 58 35 24 8
46 41 47 56 50 56 50 53 61 55 60 74 85 89 73 80 86 75 56 34 37 45 43 67 76 87 86 98 100 93 94 98 100 98 100 100 93 76 79 84 80 89 67 57 54 36 34
84 64 60 54 56 67 62 50 38 33 56 68 55 43 36 59 80 57 53 44 38 44 52 47 63 69 78 95 98 100 100 100 100 94 87 92 85 76 72 83 76 78 62 58 82 47 37
77 88 99 84 92 80 62 44 48 42 41 52 49 38 35 38 38 39 34 38 37 42 44 40 54 68 76 85 98 99 100 100 93 72 65 56 66 74 86 92 88 100 74 61 82 56 45
88 94 97 95 88 58 60 55 54 60 60 54 46 47 40 40 40 44 44 45 44 57 44 45 72 100 98 100 100 100 100 91 81 73 77 55 62 80 88 78 100 100 99 77 85 75 54
100 100 100 93 56 54 52 61 57 74 62 54 55 42 42 48 58 58 63 72 67 64 58 77 98 100 100 100 100 100 93 89 100 92 61 62 82 90 80 99 100 100 100 100 81 91 62
90 78 73 70 56 50 49 57 91 73 70 75 64 65 60 55 55 79 93 99 100 100 100 100 100 100 100 100 97 98 99 93 96 70 69 61 97 84 68 100 100 100 100 100 84 100 63
96 86 84 74 56 49 71 99 98 86 59 62 55 69 62 59 80 98 100 100 100 100 100 100 100 97 93 86 87 87 68 79 83 79 77 68 65 63 63 100 100 100 100 100 100 100 85
61 58 62 56 59 66 81 76 65 70 61 63 62 55 70 80 90 100 100 100 100 98 100 98 86 87 85 66 79 84 74 73 79 81 64 55 40 53 63 100 100 99 100 100 100 90 91
56 53 43 47 44 41 41 43 42 47 47 57 54 59 79 99 100 100 100 93 73 81 86 88 86 73 70 59 69 60 43 41 52 42 40 40 34 38 55 88 99 100 100 100 100 99 81
40 45 47 42 39 35 46 58 59 60 72 91 100 100 100 98 88 74 71 88 95 98 95 64 71 71 55 32 17 21 23 26 24 25 26 29 25 30 43 67 89 96 100 100 99 82 68
74 85 93 95 97 92 88 100 100 100 100 96 82 78 66 60 72 84 94 91 73 68 71 66 43 32 24 17 16 18 20 21 17 19 20 20 23 26 26 40 63 66 90 95 76 64 64
100 100 100 100 100 100 100 95 90 82 78 74 70 87 95 99 88 82 71 76 76 60 37 19 15 15 12 13 13 15 14 16 14 16 16 16 17 19 22 31 33 42 59 46 32 68 58
100 100 100 96 89 86 83 80 87 85 92 100 100 100 96 95 96 94 71 56 47 31 20 14 12 12 12 12 12 10 11 12 14 13 14 14 14 15 23 28 20 16 21 50 95 67 44
100 99 97 100 100 100 100 100 100 100 100 84 93 100 83 60 42 44 32 33 22 19 15 13 14 13 12 11 12 13 14 14 13 14 14 14 14 15 20 22 16 16 59 55 67 80 70
100 100 100 100 100 100 100 100 100 82 79 78 66 54 40 30 30 29 23 20 17 15 16 15 14 14 17 18 14 12 12 14 15 16 14 16 14 12 16 20 18 34 44 67 72 83 85
96 84 83 76 80 76 70 63 56 46 45 39 32 31 29 32 32 27 24 21 15 19 19 17 20 21 19 15 14 16 15 17 17 17 17 17 16 15 15 21 31 52 74 94 84 83 83
54 57 58 49 43 37 31 29 36 37 39 36 34 32 30 32 33 28 21 19 23 28 23 22 23 22 15 13 16 17 21 24 23 21 23 18 16 17 28 33 57 87 95 89 82 85 88
39 39 33 31 33 35 34 45 41 40 39 35 36 39 37 36 24 20 23 26 30 29 26 26 24 16 14 16 18 16 19 23 37 44 35 31 34 51 59 61 74 87 98 98 100 94 94
41 33 33 31 38 49 46 47 40 48 54 46 44 52 36 27 27 26 31 32 30 29 26 18 14 17 17 16 18 17 23 37 53 60 49 68 61 68 73 73 82 92 94 97 94 98 100
36 30 29 41 56 54 50 46 41 64 73 72 55 40 34 30 32 32 32 31 30 26 15 12 15 17 18 19 22 28 40 74 78 84 58 67 80 99 89 98 76 76 73 76 80 83 86
Wind_Speed
37 36 36 39 40 38 37 39 38 39 42 45 47 51 54 54 57 58 59 62 64 64 66 68 70 73 75 77 76 77 79 80 79 80 64 50 16 30 64 91 109 121 124 124 130 123 118
40 43 42 42 42 40 39 40 41 43 45 48 50 54 57 57 55 57 60 62 64 65 67 69 71 70 71 74 75 77 77 77 77 77 77 64 49 18 36 72 98 107 117 120 125 120 116
39 42 42 43 41 41 42 44 44 46 48 51 52 54 59 59 54 56 58 61 62 65 67 69 70 70 69 71 72 74 76 78 77 75 76 74 65 48 23 39 73 98 109 113 117 121 120
39 42 42 42 41 42 41 44 48 50 51 52 53 55 62 60 57 59 61 60 63 65 66 69 70 70 70 72 72 71 73 74 77 76 75 74 71 62 43 25 40 73 93 105 111 116 124
43 41 43 43 44 44 45 50 51 50 50 50 55 60 65 62 60 60 62 65 64 65 66 68 69 71 72 73 75 74 73 75 76 77 77 76 73 71 61 46 30 41 68 91 104 112 118
43 44 42 42 45 46 48 50 52 53 54 55 58 61 66 62 61 62 64 67 68 68 69 69 68 68 72 75 77 76 75 73 75 75 76 76 73 73 70 64 49 35 43 71 95 109 114
43 43 44 45 45 47 50 52 54 53 54 57 60 65 66 65 62 64 65 67 70 68 71 70 70 70 72 74 74 77 76 75 74 74 75 75 73 74 73 69 66 53 33 42 68 94 107
44 44 45 46 49 51 53 54 57 61 61 63 67 69 68 66 66 70 70 71 70 66 69 72 72 73 75 76 76 77 78 75 74 75 77 79 79 75 76 73 68 64 53 31 41 64 82
47 45 49 51 56 57 59 60 63 63 65 66 69 72 71 71 72 73 72 74 70 71 67 74 75 76 77 78 79 79 79 80 78 79 80 80 81 75 75 76 72 66 59 47 29 38 58
48 50 54 55 61 59 62 64 66 67 68 68 70 73 75 76 77 77 74 74 75 76 72 75 77 81 80 81 83 82 82 83 85 84 81 82 83 78 76 78 68 65 59 51 36 31 36
51 54 58 61 65 66 70 69 69 69 70 71 72 74 76 77 77 78 80 81 78 80 79 79 82 83 83 84 87 89 90 90 90 88 85 86 86 82 77 76 67 65 61 52 46 30 33
59 60 62 67 68 71 73 71 70 71 73 74 73 74 75 76 77 80 83 84 84 84 85 87 90 91 89 89 91 92 95 97 97 93 91 86 87 81 76 72 71 62 60 51 43 35 27
64 66 72 70 71 71 71 73 73 75 77 78 79 80 80 80 81 82 85 87 88 91 92 90 94 96 97 98 100 100 101 100 102 101 97 89 86 78 74 75 63 59 55 51 44 38 28
74 76 75 75 73 71 74 75 78 79 82 81 83 83 85 87 90 90 92 91 91 94 96 96 96 101 102 102 102 105 109 107 108 105 92 83 77 76 77 65 60 54 51 50 46 41 34
76 76 75 75 77 74 77 80 81 83 85 88 88 87 89 90 93 95 98 103 103 100 102 103 105 104 104 107 110 114 115 112 105 101 91 85 75 77 70 61 55 50 48 53 48 46 37
78 80 81 80 80 83 82 83 85 88 89 90 91 93 94 96 96 99 101 104 107 106 104 106 109 110 112 113 116 118 112 104 100 96 95 90 80 75 65 57 53 53 52 53 54 50 44
83 84 82 86 86 86 85 87 90 93 93 94 97 99 100 102 103 106 107 109 109 111 111 113 115 117 118 118 123 119 109 104 97 95 91 84 79 63 58 59 58 57 55 55 57 52 49
89 91 89 90 92 94 95 96 97 98 101 102 105 107 107 108 107 110 111 113 114 117 118 120 122 124 124 121 118 113 106 97 91 87 82 78 65 57 56 62 59 59 59 60 60 56 51
95 96 97 98 100 102 102 103 104 104 106 109 113 115 116 115 116 116 117 121 121 122 125 123 125 125 116 107 103 94 86 83 82 79 74 69 66 57 57 62 62 59 61 63 62 57 52
101 102 100 102 102 103 105 108 109 111 112 115 116 118 121 121 122 122 124 127 125 123 126 124 117 108 101 95 91 84 80 77 75 71 67 65 59 59 54 58 62 60 62 63 64 56 54
104 105 107 107 112 113 113 114 115 117 119 120 122 121 124 126 128 129 127 122 120 116 113 112 101 99 94 88 84 81 78 75 72 68 64 61 55 58 53 53 58 57 59 63 60 58 54
111 112 113 115 117 115 116 116 119 119 119 118 117 124 126 128 127 126 126 122 112 108 107 107 99 90 82 81 78 73 68 65 64 65 64 61 56 56 50 55 53 50 54 57 61 61 53
111 109 108 109 112 114 116 115 118 119 121 125 126 126 125 127 124 116 111 107 104 101 96 95 85 81 79 71 66 64 60 58 56 56 58 56 54 53 48 56 51 42 52 56 57 60 61
108 109 112 113 113 115 116 118 120 125 122 122 124 124 119 112 106 104 102 100 96 92 89 85 80 74 69 66 62 56 50 46 46 48 48 48 50 47 43 49 43 46 51 53 54 58 62
116 118 117 117 118 119 119 121 123 123 120 117 113 110 109 106 102 102 99 93 88 80 80 76 73 70 65 59 52 47 45 42 43 43 46 45 45 45 43 44 42 44 49 53 56 56 58
116 116 116 114 114 113 112 109 107 105 106 106 107 106 101 97 95 94 89 81 72 72 76 73 69 67 60 51 48 43 41 42 42 44 45 45 44 41 41 41 37 40 45 50 52 48 57
93 96 99 99 99 98 99 98 98 97 98 97 93 90 90 88 86 81 73 68 67 71 73 71 68 61 52 48 47 44 39 37 38 41 43 44 42 40 38 34 32 37 41 45 47 51 51
86 88 89 89 91 90 90 91 91 88 85 84 82 82 80 78 73 67 65 67 70 72 72 66 58 53 51 47 44 41 38 38 38 41 38 38 40 39 39 40 41 45 47 51 54 57 60
79 77 78 82 83 80 80 81 79 78 77 76 74 73 71 68 66 66 67 70 72 73 66 59 53 49 45 43 41 40 38 37 39 43 43 42 43 44 48 54 54 54 58 60 62 65 67
Wind_Direction
309 314 312 314 315 307 307 308 315 316 317 324 329 330 332 336 337 339 342 344 346 347 349 352 356 359 1 2 4 6 9 11 14 20 20 15 319 245 229 230 228 227 227 228 228 227 229
304 308 311 312 312 310 302 306 311 313 314 318 320 326 328 331 334 336 338 341 343 345 346 347 349 354 358 359 0 1 3 6 7 10 12 20 11 320 239 229 227 226 229 229 228 225 227
306 307 305 304 305 309 306 301 304 310 313 315 319 320 326 330 331 332 336 338 340 343 344 346 347 350 353 355 356 357 358 358 360 5 8 12 20 10 330 242 230 229 227 228 227 226 224
307 304 302 302 305 309 306 310 301 303 307 314 318 319 323 327 327 330 332 333 336 340 341 342 343 345 349 349 351 353 354 355 355 355 357 0 5 15 5 327 249 233 231 230 227 228 225
310 305 308 300 301 303 309 311 314 305 305 311 314 319 322 323 324 327 330 333 332 336 338 339 340 343 344 345 345 347 350 350 350 350 351 354 354 356 6 9 334 256 237 229 225 229 229
310 307 305 306 302 304 306 309 311 314 309 309 313 316 318 320 321 322 325 329 333 333 333 335 337 340 341 343 344 344 345 346 345 346 345 345 348 349 350 354 1 341 261 242 233 229 229
306 304 306 307 303 303 305 310 310 312 313 312 314 316 318 320 318 320 321 323 326 330 329 332 334 335 337 339 338 339 340 340 341 341 340 339 341 341 341 343 345 347 332 267 245 239 234
302 301 304 307 310 308 306 307 307 311 313 313 314 316 317 315 316 317 318 321 325 327 327 327 330 331 331 333 334 334 333 333 334 335 334 333 332 334 334 334 336 336 337 310 267 246 240
305 304 302 306 312 311 310 309 310 311 312 312 313 315 315 314 314 317 318 320 321 324 324 323 325 327 327 328 329 329 330 330 329 328 329 328 327 329 328 328 331 327 325 327 286 267 248
302 302 307 305 309 308 309 308 310 311 311 311 312 313 314 312 313 314 314 319 318 318 321 320 320 321 322 323 323 324 324 324 325 324 324 322 323 323 321 322 327 322 322 319 307 272 257
296 299 303 305 305 305 307 307 309 311 309 308 311 313 313 313 311 312 314 314 316 316 318 318 317 317 318 319 319 320 319 319 319 319 317 317 317 319 316 319 318 316 315 313 311 281 266
299 297 297 301 301 302 305 305 307 309 309 309 309 310 314 317 313 314 316 313 313 313 315 317 315 315 315 316 316 316 316 315 314 315 314 312 316 316 315 316 314 308 308 307 305 290 265
295 296 298 299 299 302 303 305 305 308 307 308 308 307 307 311 313 311 312 314 311 309 312 314 313 312 312 312 312 312 311 312 312 313 313 311 313 310 311 312 304 300 302 301 300 291 261
293 295 297 298 300 300 301 302 304 305 307 305 305 306 307 306 307 309 311 310 306 309 308 309 310 310 309 309 309 309 310 311 310 311 311 310 311 308 311 302 294 293 290 292 289 285 267
293 295 295 296 299 299 300 301 302 302 304 305 305 305 306 305 305 306 307 307 309 305 304 304 305 306 306 307 307 309 308 308 307 308 308 310 310 308 306 296 288 284 282 277 284 281 273
293 294 294 296 297 299 299 300 301 302 302 303 302 301 303 305 304 305 307 307 307 306 305 304 304 306 306 306 307 307 307 306 306 306 305 307 306 305 299 290 282 278 275 274 278 277 276
294 294 295 296 298 297 297 298 298 298 300 300 302 302 302 303 304 303 303 305 305 306 305 306 306 307 306 305 307 306 304 303 303 302 301 301 303 298 292 283 281 279 274 272 272 276 272
292 293 295 297 298 298 299 298 298 300 301 302 303 301 301 301 301 302 302 304 306 307 306 306 306 305 304 304 303 301 301 301 300 298 299 298 297 293 285 281 279 276 274 273 274 274 274
294 295 296 297 297 298 298 299 299 298 299 299 300 301 302 304 303 304 305 306 306 305 305 305 305 304 304 303 304 303 302 300 298 295 295 293 293 289 283 278 276 273 272 272 272 272 271
294 295 295 296 296 296 297 298 298 298 300 299 300 301 302 303 304 305 305 305 305 304 305 304 302 303 302 302 304 303 301 298 296 294 292 290 289 285 282 276 273 272 270 270 272 271 268
292 294 294 295 296 296 297 297 298 299 299 301 302 302 303 303 304 303 304 306 305 306 306 305 305 303 301 299 300 298 297 293 291 291 289 287 285 282 281 276 274 271 270 271 269 265 263
293 293 293 294 295 296 296 298 300 300 300 300 298 299 301 302 303 304 304 304 306 305 304 304 305 305 303 303 302 299 297 292 288 286 283 283 282 280 278 275 272 273 269 263 262 264 261
295 295 295 295 295 296 297 296 297 297 297 298 299 299 301 303 303 305 305 306 306 307 306 306 307 306 307 306 304 300 297 293 287 283 281 280 278 277 276 274 275 270 260 259 259 258 257
290 292 292 292 293 293 292 292 293 295 297 298 299 299 302 304 306 307 307 307 307 307 305 306 307 308 308 309 307 301 297 295 292 289 285 282 281 280 275 272 271 259 260 258 254 254 254
289 291 291 292 293 293 292 293 295 295 297 298 299 302 304 305 305 306 306 307 308 307 304 308 309 309 309 307 305 300 297 297 294 290 287 285 283 279 277 269 264 260 256 257 256 253 253
290 290 291 292 291 294 295 295 296 298 299 300 301 304 304 305 304 306 308 309 309 306 308 311 310 309 307 305 301 297 298 298 296 292 289 287 284 281 272 268 259 256 257 258 256 258 257
294 294 294 294 295 294 296 298 299 302 303 302 303 304 305 305 307 309 310 310 309 308 309 310 309 308 306 304 301 298 297 299 294 289 287 287 286 283 279 274 264 260 261 262 263 258 256
298 296 295 296 296 299 300 301 302 303 303 304 306 306 307 308 310 311 311 312 311 310 310 310 307 305 304 304 303 300 297 298 291 286 285 284 286 288 288 285 278 272 269 266 262 259 258
299 297 298 298 300 303 304 302 303 304 304 305 307 308 310 311 310 311 312 313 312 313 313 311 307 304 302 301 301 301 301 297 294 293 294 294 296 291 285 281 280 278 273 269 265 262 259